When you browse on this site, cookies collect data to enhance your experience and personalize the content and advertising you see.
Visit our Privacy Policy to learn more. By continuing to use the site, you agree to this use of cookies and data.
  • In Hungary
  • List of Countries
  • For 7 days
  • Water Temperature
  • Satellite Maps
  • Weather Map
  • News
  • Weather Widgets
  • user-avatar
    Login

    Hourly Weather Marevka

    Today, 21 November, Wednesday

    Time Temperature Precipitation Wind Pressure Humidity
    00:00 -4°C° 0 mm 2 mps 752 mmHg 84%
    01:00 -4°C° 0 mm 2 mps 752 mmHg 83%
    02:00 -4°C° 0 mm 2 mps 752 mmHg 82%
    03:00 -4°C° 0 mm 2 mps 752 mmHg 80%
    04:00 -4°C° 0 mm 2 mps 752 mmHg 79%
    05:00 -5°C° 0 mm 3 mps 752 mmHg 77%
    06:00 -5°C° 0 mm 3 mps 751 mmHg 77%
    07:00 -4°C° 0 mm 2 mps 751 mmHg 77%
    08:00 -5°C° 0 mm 3 mps 751 mmHg 77%
    09:00 -5°C° 0 mm 3 mps 751 mmHg 75%
    10:00 -4°C° 0 mm 3 mps 751 mmHg 73%
    11:00 -4°C° 0 mm 3 mps 751 mmHg 72%
    12:00 -4°C° 0 mm 3 mps 751 mmHg 71%
    13:00 -2°C° 0 mm 3 mps 751 mmHg 70%
    14:00 -2°C° 0 mm 3 mps 751 mmHg 70%
    15:00 -2°C° 0 mm 3 mps 751 mmHg 71%
    16:00 -2°C° 0 mm 2 mps 751 mmHg 72%
    17:00 -3°C° 0 mm 2 mps 751 mmHg 73%
    18:00 -3°C° 0 mm 2 mps 751 mmHg 74%
    19:00 -3°C° 0 mm 2 mps 751 mmHg 75%
    20:00 -3°C° 0 mm 2 mps 751 mmHg 76%
    21:00 -3°C° 0 mm 2 mps 751 mmHg 77%
    22:00 -4°C° 0 mm 2 mps 751 mmHg 79%
    23:00 -4°C° 0 mm 2 mps 751 mmHg 81%

    Tomorrow, 22 November, Thursday

    Time Temperature Precipitation Wind Pressure Humidity
    00:00 -4°C° 0 mm 2 mps 751 mmHg 82%
    01:00 -5°C° 0 mm 3 mps 751 mmHg 82%
    02:00 -5°C° 0 mm 3 mps 750 mmHg 83%
    03:00 -5°C° 0 mm 3 mps 750 mmHg 82%
    04:00 -5°C° 0 mm 3 mps 750 mmHg 82%
    05:00 -5°C° 0 mm 3 mps 749 mmHg 81%
    06:00 -5°C° 0 mm 3 mps 749 mmHg 82%
    07:00 -5°C° 0 mm 3 mps 749 mmHg 84%
    08:00 -5°C° 0 mm 3 mps 749 mmHg 86%
    09:00 -5°C° 0 mm 4 mps 748 mmHg 83%
    10:00 -4°C° 0 mm 4 mps 748 mmHg 80%
    11:00 -4°C° 0 mm 4 mps 748 mmHg 78%
    12:00 -5°C° 0 mm 5 mps 748 mmHg 77%
    13:00 -5°C° 0 mm 5 mps 747 mmHg 76%
    14:00 -4°C° 0 mm 5 mps 747 mmHg 76%
    15:00 -5°C° 0 mm 5 mps 747 mmHg 78%
    16:00 -5°C° 0 mm 5 mps 747 mmHg 80%
    17:00 -5°C° 0 mm 5 mps 747 mmHg 82%
    18:00 -5°C° 0 mm 5 mps 747 mmHg 81%
    19:00 -5°C° 0 mm 5 mps 747 mmHg 80%
    20:00 -5°C° 0 mm 5 mps 747 mmHg 79%
    21:00 -4°C° 0 mm 4 mps 747 mmHg 79%
    22:00 -4°C° 0 mm 4 mps 747 mmHg 79%
    23:00 -3°C° 0 mm 4 mps 747 mmHg 79%

    Day after tomorrow, 23 November, Friday

    Time Temperature Precipitation Wind Pressure Humidity
    00:00 -3°C° 0 mm 4 mps 747 mmHg 81%
    01:00 -3°C° 0 mm 4 mps 748 mmHg 84%
    02:00 -4°C° 0 mm 4 mps 748 mmHg 86%
    03:00 -2°C° 0 mm 3 mps 748 mmHg 87%
    04:00 -2°C° 0 mm 3 mps 749 mmHg 89%
    05:00 -2°C° 0 mm 3 mps 749 mmHg 90%
    06:00 -4°C° 0 mm 3 mps 750 mmHg 91%
    07:00 -3°C° 0 mm 2 mps 750 mmHg 92%
    08:00 -3°C° 0 mm 2 mps 751 mmHg 94%
    09:00 -3°C° 0 mm 2 mps 751 mmHg 89%
    10:00 -2°C° 0 mm 2 mps 751 mmHg 85%
    11:00 -1°C° 0 mm 2 mps 752 mmHg 80%
    12:00 -1°C° 0 mm 2 mps 752 mmHg 80%
    13:00 +1°C° 0 mm 1 mps 752 mmHg 80%
    14:00 +1°C° 0 mm 1 mps 752 mmHg 79%
    15:00 0°C° 0 mm 1 mps 752 mmHg 83%
    16:00 0°C° 0 mm 1 mps 752 mmHg 87%
    17:00 -3°C° 0 mm 2 mps 752 mmHg 91%
    18:00 -3°C° 0 mm 2 mps 752 mmHg 91%
    19:00 -3°C° 0 mm 2 mps 752 mmHg 91%
    20:00 -3°C° 0 mm 2 mps 752 mmHg 92%
    21:00 -3°C° 0 mm 2 mps 752 mmHg 92%
    22:00 -4°C° 0 mm 3 mps 751 mmHg 93%
    23:00 -4°C° 0 mm 3 mps 751 mmHg 93%

    24 November, Saturday

    Time Temperature Precipitation Wind Pressure Humidity
    00:00 -4°C° 0 mm 3 mps 751 mmHg 92%
    01:00 -4°C° 0 mm 4 mps 750 mmHg 92%
    02:00 -4°C° 0 mm 4 mps 750 mmHg 91%
    03:00 -4°C° 0 mm 4 mps 750 mmHg 89%
    04:00 -4°C° 0 mm 4 mps 749 mmHg 88%
    05:00 -5°C° 0 mm 5 mps 749 mmHg 86%
    06:00 -5°C° 0 mm 5 mps 748 mmHg 85%
    07:00 -6°C° 0 mm 5 mps 748 mmHg 84%
    08:00 -6°C° 0 mm 5 mps 748 mmHg 83%
    09:00 -6°C° 0 mm 5 mps 747 mmHg 80%
    10:00 -6°C° 0 mm 5 mps 747 mmHg 76%
    11:00 -5°C° 0 mm 5 mps 747 mmHg 73%
    12:00 -5°C° 0 mm 5 mps 746 mmHg 70%
    13:00 -5°C° 0 mm 5 mps 746 mmHg 67%
    14:00 -3°C° 0 mm 4 mps 745 mmHg 65%
    15:00 -3°C° 0 mm 4 mps 745 mmHg 66%
    16:00 -4°C° 0 mm 4 mps 745 mmHg 68%
    17:00 -4°C° 0 mm 4 mps 745 mmHg 70%
    18:00 -4°C° 0 mm 4 mps 745 mmHg 73%
    19:00 -4°C° 0 mm 4 mps 744 mmHg 76%
    20:00 -4°C° 0 mm 4 mps 744 mmHg 79%
    21:00 -4°C° 0 mm 4 mps 744 mmHg 81%
    22:00 -4°C° 0 mm 3 mps 744 mmHg 83%
    23:00 -4°C° 0 mm 3 mps 744 mmHg 85%

    25 November, Sunday

    Time Temperature Precipitation Wind Pressure Humidity
    00:00 -4°C° 0.1 mm 3 mps 744 mmHg 86%
    01:00 -3°C° 0.1 mm 2 mps 744 mmHg 87%
    02:00 -3°C° 0.1 mm 2 mps 744 mmHg 88%
    03:00 -3°C° 0.1 mm 2 mps 744 mmHg 89%
    04:00 -1°C° 0.1 mm 1 mps 743 mmHg 90%
    05:00 -1°C° 0.1 mm 1 mps 743 mmHg 91%
    06:00 -1°C° 0.1 mm 1 mps 743 mmHg 91%
    07:00 -1°C° 0.1 mm 1 mps 743 mmHg 92%
    08:00 -1°C° 0.1 mm 1 mps 743 mmHg 92%
    09:00 -1°C° 0.2 mm 1 mps 742 mmHg 92%
    10:00 0°C° 0.2 mm 1 mps 742 mmHg 91%
    11:00 0°C° 0.2 mm 1 mps 742 mmHg 91%
    12:00 0°C° 0.6 mm 1 mps 741 mmHg 92%
    13:00 0°C° 0.6 mm 1 mps 741 mmHg 93%
    14:00 0°C° 0.6 mm 1 mps 740 mmHg 94%
    15:00 -1°C° 0.6 mm 1 mps 740 mmHg 95%
    16:00 -1°C° 0.6 mm 1 mps 740 mmHg 95%
    17:00 -1°C° 0.6 mm 1 mps 739 mmHg 96%
    18:00 -1°C° 0.3 mm 1 mps 739 mmHg 96%
    19:00 -1°C° 0.3 mm 1 mps 739 mmHg 96%
    20:00 -1°C° 0.3 mm 1 mps 739 mmHg 96%
    21:00 -1°C° 0.1 mm 1 mps 739 mmHg 96%
    22:00 -3°C° 0.1 mm 2 mps 738 mmHg 95%
    23:00 -3°C° 0.1 mm 2 mps 738 mmHg 95%

    26 November, Monday

    Time Temperature Precipitation Wind Pressure Humidity
    00:00 -3°C° 0.1 mm 2 mps 738 mmHg 94%
    01:00 -4°C° 0.1 mm 3 mps 738 mmHg 93%
    02:00 -4°C° 0.1 mm 3 mps 739 mmHg 93%
    03:00 -4°C° 0.1 mm 3 mps 739 mmHg 92%
    04:00 -5°C° 0.1 mm 4 mps 739 mmHg 91%
    05:00 -5°C° 0.1 mm 4 mps 739 mmHg 90%
    06:00 -7°C° 0 mm 4 mps 739 mmHg 90%
    07:00 -7°C° 0 mm 4 mps 740 mmHg 89%
    08:00 -7°C° 0 mm 3 mps 740 mmHg 89%
    09:00 -7°C° 0 mm 4 mps 740 mmHg 86%
    10:00 -7°C° 0 mm 4 mps 741 mmHg 83%
    11:00 -5°C° 0 mm 4 mps 741 mmHg 80%
    12:00 -5°C° 0 mm 4 mps 742 mmHg 79%
    13:00 -5°C° 0 mm 4 mps 742 mmHg 78%
    14:00 -5°C° 0 mm 4 mps 742 mmHg 77%
    15:00 -7°C° 0 mm 4 mps 742 mmHg 80%
    16:00 -7°C° 0 mm 3 mps 743 mmHg 82%
    17:00 -7°C° 0 mm 3 mps 743 mmHg 84%
    18:00 -8°C° 0 mm 3 mps 743 mmHg 86%
    19:00 -7°C° 0 mm 2 mps 744 mmHg 87%
    20:00 -7°C° 0 mm 2 mps 744 mmHg 89%
    21:00 -8°C° 0 mm 2 mps 744 mmHg 90%
    22:00 -8°C° 0 mm 2 mps 745 mmHg 90%
    23:00 -8°C° 0 mm 2 mps 745 mmHg 91%
    Show more